Time,TemperatureF,DewpointF,PressureIn,WindDirection,WindDirectionDegrees,WindSpeedMPH,WindSpeedGustMPH,Humidity,HourlyPrecipIn,Conditions,Clouds,dailyrainin,SoftwareType,DateUTC
2013-03-08 00:01:00,20.0,19.0,-100.00,SSE,155,9.0,14.0,93,0.00,,,0.00,,2013-03-08 06:01:00,
2013-03-08 00:11:00,20.0,19.0,-100.00,SE,145,9.0,16.0,93,0.00,,,0.00,,2013-03-08 06:11:00,
2013-03-08 00:21:00,20.0,18.0,-100.00,SE,130,6.0,14.0,93,0.00,,,0.00,,2013-03-08 06:21:00,
2013-03-08 00:32:00,20.0,18.0,-100.00,SE,140,7.0,11.0,93,0.00,,,0.00,,2013-03-08 06:32:00,
2013-03-08 00:42:00,20.0,18.0,-100.00,SSE,150,9.0,14.0,94,0.00,,,0.00,,2013-03-08 06:42:00,
2013-03-08 00:51:00,20.0,18.0,-100.00,SE,145,8.0,12.0,94,0.00,,,0.00,,2013-03-08 06:51:00,
2013-03-08 01:01:00,19.0,18.0,-100.00,SE,145,7.0,12.0,94,0.00,,,0.00,,2013-03-08 07:01:00,
2013-03-08 01:11:00,19.0,18.0,-100.00,SSE,165,6.0,12.0,94,0.00,,,0.00,,2013-03-08 07:11:00,
2013-03-08 01:21:00,19.0,18.0,-100.00,SSE,155,7.0,11.0,94,0.00,,,0.00,,2013-03-08 07:21:00,
2013-03-08 01:31:00,19.0,18.0,-100.00,SE,130,7.0,12.0,94,0.00,,,0.00,,2013-03-08 07:31:00,
2013-03-08 01:42:00,19.0,18.0,-100.00,SSE,150,8.0,13.0,94,0.00,,,0.00,,2013-03-08 07:42:00,
2013-03-08 01:51:00,19.0,18.0,-100.00,SE,145,7.0,11.0,94,0.00,,,0.00,,2013-03-08 07:51:00,
2013-03-08 02:01:00,19.0,18.0,-100.00,SE,135,7.0,12.0,94,0.00,,,0.00,,2013-03-08 08:01:00,
2013-03-08 02:11:00,20.0,18.0,-100.00,SE,145,7.0,11.0,94,0.00,,,0.00,,2013-03-08 08:11:00,
2013-03-08 02:21:00,19.0,18.0,-100.00,SSE,150,4.0,11.0,94,0.00,,,0.00,,2013-03-08 08:21:00,
2013-03-08 02:31:00,19.0,18.0,-100.00,SE,140,6.0,9.0,94,0.00,,,0.00,,2013-03-08 08:31:00,
2013-03-08 02:41:00,19.0,18.0,-100.00,SSE,150,7.0,10.0,95,0.00,,,0.00,,2013-03-08 08:41:00,
2013-03-08 02:52:00,19.0,18.0,-100.00,SE,135,7.0,11.0,95,0.00,,,0.00,,2013-03-08 08:52:00,
2013-03-08 03:03:00,19.0,18.0,-100.00,SE,135,6.0,9.0,95,0.00,,,0.00,,2013-03-08 09:03:00,
2013-03-08 03:11:00,18.0,18.0,-100.00,SE,140,6.0,10.0,95,0.00,,,0.00,,2013-03-08 09:11:00,
2013-03-08 03:21:00,19.0,18.0,-100.00,SE,135,7.0,11.0,95,0.00,,,0.00,,2013-03-08 09:21:00,
2013-03-08 03:32:00,19.0,18.0,-100.00,SE,125,7.0,12.0,95,0.00,,,0.00,,2013-03-08 09:32:00,
2013-03-08 03:42:00,19.0,18.0,-100.00,SE,135,6.0,11.0,95,0.00,,,0.00,,2013-03-08 09:42:00,
2013-03-08 03:52:00,18.0,18.0,-100.00,SE,140,6.0,10.0,96,0.00,,,0.00,,2013-03-08 09:52:00,
2013-03-08 04:01:00,18.0,18.0,-100.00,ESE,120,6.0,9.0,96,0.00,,,0.00,,2013-03-08 10:01:00,
2013-03-08 04:11:00,18.0,18.0,-100.00,ESE,110,4.0,9.0,96,0.00,,,0.00,,2013-03-08 10:11:00,
2013-03-08 04:21:00,18.0,18.0,-100.00,ESE,105,4.0,9.0,96,0.00,,,0.00,,2013-03-08 10:21:00,
2013-03-08 04:32:00,18.0,18.0,-100.00,ESE,115,4.0,7.0,96,0.00,,,0.00,,2013-03-08 10:32:00,
2013-03-08 04:41:00,18.0,18.0,-100.00,ESE,105,5.0,9.0,96,0.00,,,0.00,,2013-03-08 10:41:00,
2013-03-08 04:51:00,18.0,18.0,-100.00,ESE,120,4.0,10.0,96,0.00,,,0.00,,2013-03-08 10:51:00,
2013-03-08 05:01:00,18.0,18.0,-100.00,SE,125,6.0,11.0,97,0.00,,,0.00,,2013-03-08 11:01:00,
2013-03-08 05:11:00,18.0,18.0,-100.00,ESE,115,6.0,11.0,97,0.00,,,0.00,,2013-03-08 11:11:00,
2013-03-08 05:21:00,18.0,18.0,-100.00,ESE,105,4.0,9.0,97,0.00,,,0.00,,2013-03-08 11:21:00,
2013-03-08 05:32:00,18.0,18.0,-100.00,ESE,120,6.0,10.0,97,0.00,,,0.00,,2013-03-08 11:32:00,
2013-03-08 05:41:00,18.0,18.0,-100.00,ESE,115,7.0,9.0,98,0.00,,,0.00,,2013-03-08 11:41:00,
2013-03-08 05:52:00,18.0,18.0,-100.00,ESE,120,6.0,11.0,98,0.00,,,0.00,,2013-03-08 11:52:00,
2013-03-08 06:01:00,18.0,18.0,-100.00,SE,130,4.0,9.0,98,0.00,,,0.00,,2013-03-08 12:01:00,
2013-03-08 06:11:00,18.0,18.0,-100.00,SE,140,7.0,10.0,98,0.00,,,0.00,,2013-03-08 12:11:00,
2013-03-08 06:22:00,18.0,18.0,-100.00,SE,140,6.0,9.0,98,0.00,,,0.00,,2013-03-08 12:22:00,
2013-03-08 06:32:00,18.0,18.0,-100.00,SE,130,7.0,10.0,99,0.00,,,0.00,,2013-03-08 12:32:00,
2013-03-08 06:42:00,19.0,18.0,-100.00,SE,140,7.0,11.0,99,0.00,,,0.00,,2013-03-08 12:42:00,
2013-03-08 06:52:00,19.0,18.0,-100.00,SE,130,8.0,12.0,99,0.00,,,0.00,,2013-03-08 12:52:00,
2013-03-08 07:21:00,20.0,19.0,-100.00,SE,130,8.0,11.0,99,0.00,,,0.00,,2013-03-08 13:21:00,
2013-03-08 07:32:00,20.0,19.0,-100.00,ESE,115,6.0,10.0,99,0.00,,,0.00,,2013-03-08 13:32:00,
2013-03-08 07:42:00,20.0,19.0,-100.00,SE,125,7.0,12.0,98,0.00,,,0.00,,2013-03-08 13:42:00,
2013-03-08 07:52:00,20.0,19.0,-100.00,SE,125,6.0,9.0,97,0.00,,,0.00,,2013-03-08 13:52:00,
2013-03-08 08:02:00,21.0,19.0,-100.00,ESE,115,5.0,9.0,96,0.00,,,0.00,,2013-03-08 14:02:00,
2013-03-08 08:11:00,21.0,19.0,-100.00,SE,130,9.0,14.0,95,0.00,,,0.00,,2013-03-08 14:11:00,
2013-03-08 08:22:00,21.0,19.0,-100.00,SE,125,7.0,13.0,95,0.00,,,0.00,,2013-03-08 14:22:00,
2013-03-08 08:32:00,22.0,19.0,-100.00,SE,135,9.0,14.0,94,0.00,,,0.00,,2013-03-08 14:32:00,
2013-03-08 08:42:00,22.0,21.0,-100.00,SE,140,9.0,13.0,93,0.00,,,0.00,,2013-03-08 14:42:00,
2013-03-08 08:52:00,23.0,21.0,-100.00,SE,140,9.0,18.0,92,0.00,,,0.00,,2013-03-08 14:52:00,
2013-03-08 09:02:00,24.0,21.0,-100.00,ESE,110,9.0,13.0,91,0.00,,,0.00,,2013-03-08 15:02:00,
2013-03-08 09:11:00,24.0,23.0,-100.00,SE,135,9.0,16.0,91,0.00,,,0.00,,2013-03-08 15:11:00,
2013-03-08 09:22:00,26.0,23.0,-100.00,SE,140,7.0,14.0,89,0.00,,,0.00,,2013-03-08 15:22:00,
2013-03-08 09:32:00,26.0,23.0,-100.00,SSE,150,10.0,17.0,88,0.00,,,0.00,,2013-03-08 15:32:00,
2013-03-08 09:42:00,26.0,23.0,-100.00,SE,135,11.0,17.0,90,0.00,,,0.00,,2013-03-08 15:42:00,
2013-03-08 09:52:00,26.0,23.0,-100.00,SE,135,14.0,19.0,89,0.00,,,0.00,,2013-03-08 15:52:00,
2013-03-08 10:01:00,27.0,25.0,-100.00,SE,140,11.0,19.0,89,0.00,,,0.00,,2013-03-08 16:01:00,
2013-03-08 10:11:00,27.0,25.0,-100.00,SE,145,13.0,19.0,89,0.00,,,0.00,,2013-03-08 16:11:00,
2013-03-08 10:21:00,28.0,25.0,-100.00,SE,145,11.0,17.0,87,0.00,,,0.00,,2013-03-08 16:21:00,
2013-03-08 10:32:00,29.0,25.0,-100.00,SSE,155,9.0,18.0,86,0.00,,,0.00,,2013-03-08 16:32:00,
2013-03-08 10:42:00,29.0,25.0,-100.00,SE,145,10.0,18.0,84,0.00,,,0.00,,2013-03-08 16:42:00,
2013-03-08 10:52:00,29.0,25.0,-100.00,SSE,150,11.0,17.0,85,0.00,,,0.00,,2013-03-08 16:52:00,
2013-03-08 11:02:00,30.0,27.0,-100.00,SSE,150,12.0,19.0,85,0.00,,,0.00,,2013-03-08 17:02:00,
2013-03-08 11:11:00,30.0,27.0,-100.00,SE,145,13.0,19.0,85,0.00,,,0.00,,2013-03-08 17:11:00,
2013-03-08 11:21:00,30.0,27.0,-100.00,SE,135,12.0,17.0,84,0.00,,,0.00,,2013-03-08 17:21:00,
2013-03-08 11:32:00,31.0,27.0,-100.00,SE,140,9.0,16.0,82,0.00,,,0.00,,2013-03-08 17:32:00,
2013-03-08 11:41:00,30.0,27.0,-100.00,SE,135,11.0,20.0,83,0.00,,,0.00,,2013-03-08 17:41:00,
2013-03-08 11:52:00,31.0,27.0,-100.00,SE,130,12.0,19.0,83,0.00,,,0.00,,2013-03-08 17:52:00,
2013-03-08 12:02:00,31.0,27.0,-100.00,SSE,160,11.0,16.0,81,0.00,,,0.00,,2013-03-08 18:02:00,
2013-03-08 12:11:00,32.0,27.0,-100.00,SSE,150,8.0,15.0,79,0.00,,,0.00,,2013-03-08 18:11:00,
2013-03-08 12:21:00,33.0,27.0,-100.00,SE,135,6.0,17.0,79,0.00,,,0.00,,2013-03-08 18:21:00,
2013-03-08 12:32:00,33.0,27.0,-100.00,SE,140,9.0,15.0,79,0.00,,,0.00,,2013-03-08 18:32:00,
2013-03-08 12:42:00,34.0,27.0,-100.00,SE,125,5.0,12.0,77,0.00,,,0.00,,2013-03-08 18:42:00,
2013-03-08 12:51:00,33.0,27.0,-100.00,SE,130,9.0,13.0,78,0.00,,,0.00,,2013-03-08 18:51:00,
2013-03-08 13:01:00,33.0,28.0,-100.00,East,95,7.0,11.0,79,0.00,,,0.00,,2013-03-08 19:01:00,
2013-03-08 13:11:00,34.0,28.0,-100.00,SE,135,6.0,11.0,76,0.00,,,0.00,,2013-03-08 19:11:00,
2013-03-08 13:21:00,34.0,28.0,-100.00,SSE,150,7.0,12.0,79,0.00,,,0.00,,2013-03-08 19:21:00,
2013-03-08 13:32:00,34.0,28.0,-100.00,ESE,105,10.0,14.0,80,0.00,,,0.00,,2013-03-08 19:32:00,
2013-03-08 13:41:00,33.0,28.0,-100.00,ESE,120,11.0,16.0,81,0.00,,,0.00,,2013-03-08 19:41:00,
2013-03-08 13:51:00,34.0,28.0,-100.00,ESE,120,11.0,17.0,81,0.00,,,0.00,,2013-03-08 19:51:00,
2013-03-08 14:01:00,34.0,28.0,-100.00,SE,125,13.0,18.0,81,0.00,,,0.00,,2013-03-08 20:01:00,
2013-03-08 14:11:00,34.0,28.0,-100.00,SE,140,13.0,20.0,82,0.00,,,0.00,,2013-03-08 20:11:00,
2013-03-08 14:21:00,36.0,30.0,-100.00,ESE,110,6.0,14.0,79,0.00,,,0.00,,2013-03-08 20:21:00,
2013-03-08 14:32:00,35.0,30.0,-100.00,ESE,120,14.0,19.0,81,0.00,,,0.00,,2013-03-08 20:32:00,
2013-03-08 14:42:00,36.0,30.0,-100.00,ESE,120,8.0,16.0,77,0.00,,,0.00,,2013-03-08 20:42:00,
2013-03-08 14:52:00,37.0,30.0,-100.00,ESE,120,7.0,17.0,77,0.00,,,0.00,,2013-03-08 20:52:00,
2013-03-08 15:02:00,36.0,30.0,-100.00,SE,130,8.0,15.0,79,0.00,,,0.00,,2013-03-08 21:02:00,
2013-03-08 15:11:00,36.0,30.0,-100.00,East,85,9.0,15.0,78,0.00,,,0.00,,2013-03-08 21:11:00,
2013-03-08 15:21:00,35.0,30.0,-100.00,East,85,10.0,15.0,83,0.00,,,0.00,,2013-03-08 21:21:00,
2013-03-08 15:32:00,36.0,30.0,-100.00,SE,135,11.0,17.0,81,0.00,,,0.00,,2013-03-08 21:32:00,
2013-03-08 15:42:00,36.0,30.0,-100.00,ESE,110,10.0,17.0,79,0.00,,,0.00,,2013-03-08 21:42:00,
2013-03-08 15:51:00,36.0,30.0,-100.00,SE,125,9.0,17.0,81,0.00,,,0.00,,2013-03-08 21:51:00,
2013-03-08 16:01:00,36.0,30.0,-100.00,ESE,115,12.0,18.0,82,0.00,,,0.00,,2013-03-08 22:01:00,
2013-03-08 16:11:00,36.0,30.0,-100.00,ESE,105,12.0,20.0,82,0.00,,,0.00,,2013-03-08 22:11:00,
2013-03-08 16:22:00,36.0,32.0,-100.00,East,90,9.0,18.0,84,0.00,,,0.00,,2013-03-08 22:22:00,
2013-03-08 16:32:00,35.0,32.0,-100.00,East,100,11.0,17.0,85,0.00,,,0.00,,2013-03-08 22:32:00,
2013-03-08 16:42:00,35.0,32.0,-100.00,ESE,115,13.0,21.0,86,0.00,,,0.00,,2013-03-08 22:42:00,
2013-03-08 16:52:00,35.0,32.0,-100.00,ESE,120,9.0,18.0,86,0.00,,,0.00,,2013-03-08 22:52:00,
2013-03-08 17:01:00,35.0,32.0,-100.00,SE,140,9.0,17.0,88,0.00,,,0.00,,2013-03-08 23:01:00,
2013-03-08 17:11:00,35.0,32.0,-100.00,East,95,10.0,19.0,89,0.00,,,0.00,,2013-03-08 23:11:00,
2013-03-08 17:21:00,35.0,32.0,-100.00,ESE,105,11.0,16.0,90,0.00,,,0.00,,2013-03-08 23:21:00,
2013-03-08 17:32:00,35.0,32.0,-100.00,East,100,9.0,17.0,90,0.00,,,0.00,,2013-03-08 23:32:00,
2013-03-08 17:42:00,34.0,32.0,-100.00,East,100,11.0,16.0,91,0.00,,,0.00,,2013-03-08 23:42:00,
2013-03-08 17:52:00,35.0,32.0,-100.00,ESE,110,7.0,14.0,91,0.00,,,0.00,,2013-03-08 23:52:00,
2013-03-08 18:02:00,35.0,32.0,-100.00,ESE,110,8.0,17.0,91,0.00,,,0.00,,2013-03-09 00:02:00,
2013-03-08 18:11:00,34.0,32.0,-100.00,ESE,120,9.0,12.0,91,0.00,,,0.00,,2013-03-09 00:11:00,
2013-03-08 18:22:00,34.0,32.0,-100.00,SE,125,9.0,15.0,92,0.00,,,0.00,,2013-03-09 00:22:00,
2013-03-08 18:32:00,34.0,32.0,-100.00,ESE,115,10.0,17.0,92,0.00,,,0.00,,2013-03-09 00:32:00,
2013-03-08 18:42:00,34.0,32.0,-100.00,ESE,110,11.0,18.0,91,0.00,,,0.00,,2013-03-09 00:42:00,
2013-03-08 18:52:00,34.0,32.0,-100.00,ESE,105,12.0,19.0,90,0.00,,,0.00,,2013-03-09 00:52:00,
2013-03-08 19:01:00,34.0,32.0,-100.00,ESE,105,11.0,18.0,90,0.00,,,0.00,,2013-03-09 01:01:00,
2013-03-08 19:12:00,34.0,32.0,-100.00,ESE,105,12.0,21.0,90,0.00,,,0.00,,2013-03-09 01:12:00,
2013-03-08 19:21:00,35.0,32.0,-100.00,East,100,11.0,22.0,89,0.00,,,0.00,,2013-03-09 01:21:00,
2013-03-08 19:32:00,35.0,32.0,-100.00,ESE,115,14.0,24.0,89,0.00,,,0.00,,2013-03-09 01:32:00,
2013-03-08 19:41:00,35.0,32.0,-100.00,East,100,13.0,26.0,88,0.00,,,0.00,,2013-03-09 01:41:00,
2013-03-08 19:51:00,35.0,32.0,-100.00,ESE,115,14.0,26.0,88,0.00,,,0.00,,2013-03-09 01:51:00,
2013-03-08 20:01:00,35.0,32.0,-100.00,ESE,105,14.0,23.0,87,0.00,,,0.00,,2013-03-09 02:01:00,
2013-03-08 20:11:00,35.0,32.0,-100.00,ESE,115,11.0,21.0,87,0.00,,,0.00,,2013-03-09 02:11:00,
2013-03-08 20:21:00,35.0,32.0,-100.00,SE,125,11.0,19.0,88,0.00,,,0.00,,2013-03-09 02:21:00,
2013-03-08 20:31:00,35.0,32.0,-100.00,ESE,110,12.0,21.0,88,0.00,,,0.00,,2013-03-09 02:31:00,
2013-03-08 20:41:00,35.0,32.0,-100.00,SE,125,9.0,21.0,89,0.00,,,0.00,,2013-03-09 02:41:00,
2013-03-08 20:51:00,35.0,32.0,-100.00,SE,130,11.0,19.0,88,0.00,,,0.00,,2013-03-09 02:51:00,
2013-03-08 21:01:00,35.0,32.0,-100.00,ESE,115,10.0,21.0,88,0.00,,,0.00,,2013-03-09 03:01:00,
2013-03-08 21:11:00,36.0,32.0,-100.00,SE,135,7.0,20.0,88,0.00,,,0.00,,2013-03-09 03:11:00,
2013-03-08 21:21:00,36.0,32.0,-100.00,SE,135,12.0,22.0,85,0.00,,,0.00,,2013-03-09 03:21:00,
2013-03-08 21:31:00,36.0,32.0,-100.00,ESE,120,15.0,27.0,84,0.00,,,0.00,,2013-03-09 03:31:00,
2013-03-08 21:41:00,36.0,32.0,-100.00,SE,145,15.0,26.0,83,0.00,,,0.00,,2013-03-09 03:41:00,
2013-03-08 21:52:00,36.0,32.0,-100.00,SE,135,12.0,31.0,84,0.00,,,0.00,,2013-03-09 03:52:00,
2013-03-08 22:01:00,36.0,32.0,-100.00,SE,135,15.0,24.0,85,0.00,,,0.00,,2013-03-09 04:01:00,
2013-03-08 22:11:00,36.0,32.0,-100.00,SE,135,14.0,21.0,86,0.00,,,0.00,,2013-03-09 04:11:00,
2013-03-08 22:22:00,36.0,32.0,-100.00,ESE,110,13.0,22.0,87,0.00,,,0.00,,2013-03-09 04:22:00,
2013-03-08 22:32:00,36.0,32.0,-100.00,SE,125,14.0,24.0,87,0.00,,,0.00,,2013-03-09 04:32:00,
2013-03-08 22:41:00,36.0,32.0,-100.00,ESE,110,17.0,26.0,86,0.00,,,0.00,,2013-03-09 04:41:00,
2013-03-08 22:51:00,36.0,32.0,-100.00,SE,130,12.0,23.0,89,0.00,,,0.00,,2013-03-09 04:51:00,
2013-03-08 23:02:00,35.0,34.0,-100.00,SE,135,12.0,24.0,92,0.00,,,0.00,,2013-03-09 05:02:00,
2013-03-08 23:11:00,35.0,34.0,-100.00,SE,135,16.0,24.0,93,0.00,,,0.00,,2013-03-09 05:11:00,
2013-03-08 23:21:00,35.0,34.0,-100.00,SE,140,12.0,27.0,96,0.00,,,0.00,,2013-03-09 05:21:00,